Погода в Цзюцзяне

Китай     29°41′37″N   115°58′40″E
темп.,
°C
ветер,
м/с
пор.,
м/с
влажн.,
%
обл.,
%
осадки,
мм/ч
давл.,
гПа
погр.,
м
15 апреля, чт
чт1523:00+15всв4686100 0.3 1017347
02:00+14св249390 1.4 1016266
05:00+14ссв2292100 0.1 1015153
08:00+15вюв0188100 0.1 1016176
11:00+18ююз1273100 0.0 1016685
14:00+21зсз126599 0.1 10141150
17:00+20з1371100 0.2 1014658
20:00+18з22806 0.3 101638
16 апреля, пт
пт1623:00+17з23875 0.0 101866
02:00+16зюз228986 0.0 101630
05:00+15юз119039 0.0 101612
08:00+18зсз2280100 0.0 1018290
11:00+21с2269100 0.0 1018757
14:00+20всв2467100 0.3 1017594
17:00+17ссз3677100 0.8 1018494
20:00+16сз3481100 1.1 1021232
17 апреля, сб
сб1723:00+14з3481100 0.0 102275
02:00+13з3487100 0.0 102185
05:00+12з359132 0.0 1021115
08:00+15зсз3569100 0.0 1024313
11:00+19св5555100 0.0 10251002
14:00+21св5533100 0.0 10231023
17:00+20всв4640100 0.0 1021656
20:00+16всв3647100 0.0 1024207
18 апреля, вс
вс1823:00+15св3750100 0.0 1024215
02:00+14св3758100 0.0 1023195
05:00+13св3659100 0.0 1022164
08:00+15св475155 0.0 1023414
11:00+19всв453649 0.0 1022727
14:00+22всв333289 0.0 1018924
17:00+21св2338100 0.0 1017547
20:00+19всв2245100 0.0 101885
19 апреля, пн
пн1923:00+18всв2254100 0.0 101763
02:00+17св2257100 0.0 101677
05:00+16св236192 0.0 101687
08:00+17всв236299 0.0 1017204
11:00+20в224896 0.0 1017576
14:00+21ююв224956 0.0 1015506
17:00+23юв34485 0.0 1013892
20:00+20юв23635 0.0 101475